{"data":{"norad_id":60071,"intl_designator":"2024-113N","name":"STARLINK-11184 [DTC]","alt_names":[],"object_type":"PAYLOAD","status":"ACTIVE","operator":null,"country":"US","launch_date":"2024-06-19","launch_site_code":"AFWTR","launch_vehicle":null,"mission":null,"orbit_class":"UNKNOWN","rcs_meters":null,"size_class":null,"mass_kg":null,"dimensions":null,"purposes":["comms"],"wikipedia_slug":null,"has_3d_model":false,"image_url":null,"decayed_at":null,"tle_current":{"epoch":"2026-05-24T19:21:07.956576Z","epoch_age_seconds":101984,"freshness":"FRESH","line1":"1 60071U 24113N   26144.80634209 -.00003703  00000+0 -25701-4 0  9997","line2":"2 60071  53.1602 176.2062 0001179  71.0166 289.0979 15.69727359111513","mean_motion":15.69727359,"eccentricity":0.0001179,"inclination_deg":53.1602,"raan_deg":176.2062,"arg_perigee_deg":71.0166,"mean_anomaly_deg":289.0979,"bstar":-2.5701e-5,"rev_number":11151,"period_min":91.73567573654,"perigee_km":358.88268778466,"apogee_km":360.4714643438,"semimajor_km":6737.8140760642,"source":"CELESTRAK","updated_at":"2026-05-25T13:38:19.159143Z"}}}